TimePST,TemperatureF,Dew PointF,Humidity,Sea Level PressureIn,VisibilityMPH,Wind Direction,Wind SpeedMPH,Gust SpeedMPH,PrecipitationIn,Events,Conditions,WindDirDegrees,DateUTC
12:56 AM,36.0,21.9,57,30.25,10.0,Calm,Calm,-,N/A,,Clear,0,2013-01-09 08:56:00
1:56 AM,35.1,21.0,57,30.25,10.0,Calm,Calm,-,N/A,,Clear,0,2013-01-09 09:56:00
2:56 AM,30.9,18.0,59,30.25,10.0,Calm,Calm,-,N/A,,Clear,0,2013-01-09 10:56:00
3:56 AM,30.9,18.0,59,30.23,10.0,West,3.5,-,N/A,,Clear,260,2013-01-09 11:56:00
4:56 AM,28.9,18.0,64,30.22,10.0,Calm,Calm,-,N/A,,Clear,0,2013-01-09 12:56:00
5:56 AM,30.9,19.9,64,30.24,10.0,Calm,Calm,-,N/A,,Clear,0,2013-01-09 13:56:00
6:56 AM,27.0,15.1,61,30.25,10.0,West,3.5,-,N/A,,Clear,280,2013-01-09 14:56:00
7:56 AM,32.0,19.9,61,30.25,10.0,Calm,Calm,-,N/A,,Clear,0,2013-01-09 15:56:00
8:56 AM,39.0,24.1,55,30.25,10.0,Calm,Calm,-,N/A,,Clear,0,2013-01-09 16:56:00
9:56 AM,45.0,26.1,48,30.23,10.0,Calm,Calm,-,N/A,,Clear,0,2013-01-09 17:56:00
10:56 AM,54.0,27.0,35,30.18,10.0,Calm,Calm,-,N/A,,Clear,0,2013-01-09 18:56:00
11:56 AM,59.0,28.0,31,30.13,10.0,Calm,Calm,-,N/A,,Clear,0,2013-01-09 19:56:00
12:56 PM,61.0,28.0,29,30.09,10.0,Calm,Calm,-,N/A,,Clear,0,2013-01-09 20:56:00
1:56 PM,62.1,28.0,28,30.07,10.0,Calm,Calm,-,N/A,,Clear,0,2013-01-09 21:56:00
2:56 PM,62.1,28.0,28,30.06,10.0,East,3.5,-,N/A,,Clear,80,2013-01-09 22:56:00
3:56 PM,61.0,28.0,29,30.04,10.0,Calm,Calm,-,N/A,,Clear,0,2013-01-09 23:56:00
4:56 PM,59.0,30.0,33,30.04,10.0,West,9.2,-,N/A,,Clear,260,2013-01-10 00:56:00
5:56 PM,57.0,30.0,36,30.03,10.0,West,11.5,-,N/A,,Clear,270,2013-01-10 01:56:00
6:56 PM,55.0,32.0,42,30.04,10.0,West,13.8,-,N/A,,Clear,270,2013-01-10 02:56:00
7:56 PM,53.1,32.0,45,30.02,10.0,WNW,11.5,-,N/A,,Clear,290,2013-01-10 03:56:00
8:56 PM,53.1,32.0,45,29.99,10.0,NW,12.7,-,N/A,,Clear,320,2013-01-10 04:56:00
9:56 PM,52.0,33.1,49,29.96,10.0,West,18.4,-,N/A,,Clear,260,2013-01-10 05:56:00
10:56 PM,51.1,30.0,44,29.96,10.0,West,13.8,-,N/A,,Clear,280,2013-01-10 06:56:00
11:56 PM,48.9,35.1,59,29.92,10.0,WSW,23.0,-,N/A,,Clear,250,2013-01-10 07:56:00